SL-14 R/B

Satellite information

Favourite Embed

Satellite Type and Status

ROCKET BODYIN ORBIT

Key statistics

Satellite SL-14 R/B at a glance.

Uptime

11479

Days in orbit

Revolutions

≈ 12.6

Per day

Orbit

LEO

Low Earth Orbit

Inclination

82.6

Latest

Satellite identification and parameters

Extended collection of information and parameters for SL-14 R/B.

Object identification

Identified? True

Debris? False

Object name: SL-14 R/B

International designator: 1994-011G

Object number (NORAD): 23005

Object ID (CCSDS): 23005

Country: COMMONWEALTH OF INDEPENDENT STATES (CIS)

Current information (Y/N): Y

RCS size: LARGE

Orbital parameters

Period: 114.721 minutes

Inclination: 82.5768 deg

SMA: 7820.877 km

Apoapsis: 1475.586 km

Periapsis: 1409.898 km

RAAN: 274.1802 deg

Eccentricy: 0.0041995

Argument of periapsis: 142.9097 deg

Mean anomaly: 336.435 deg

Mean motion: 12.5521921 rev/day

Mean motion (dot): 0.00000018 rev/day2

B* drag term: 0.000045529 1/REarth

Two-line elements (TLE)

Creation date: July 17, 2025, 3:50 a.m.

Reference frame: TEME

Reference center: EARTH

Epoch: July 16, 2025, 4:49 p.m. UTC

TLE line 0: 0 SL-14 R/B

TLE line 1: 1 23005U 94011G 25197.70070226 .00000018 00000-0 45529-4 0 9991

TLE line 2: 2 23005 82.5768 274.1802 0041995 142.9097 336.4350 12.55219210439662

Live tracking on map

Real-time ground track for satellite SL-14 R/B.

In-orbit conjunctions

A list of the most updated potential collisions computed for object SL-14 R/B.

Target Orbit TCA Probability of collision Miss distance Type
COSMOS 1391 LEO 2025-03-21 18:35:05 0.0002223172 95.0 (m) PAYLOAD
SL-8 DEB LEO 2024-12-11 13:33:38 0.001071791 121.0 (m) DEBRIS

Associated space launch

Second generation store-dump military communications satellites

SL-14 R/B was lifted into orbit during the mission ‘Tsiklon-3 | Strela-3 101 to 106’, on board a Tsiklon-3 space rocket.

The launch took place on Feb. 12, 1994, 8:54 a.m. from 32/1.

For more information about the launch, click the button.

Launch to space Tsiklon-3 | Strela-3 101 to 106
Tsiklon-3 | Strela-3 101 to 106

Agency: N/A

Status: Launch Successful

Launch date: Feb. 12, 1994, 8:54 a.m. UTC

Rocket: Tsiklon-3

Launch pad: 32/1

Location: Plesetsk Cosmodrome, Russian Federation

...

Latest news about this satellite

There are no fresh news available about this satellite. Check back as we update our databases every day.


Newsletter sign-up

Weekly statistics, charts and insights to help you stay on top of the space industry.